Location: Unspecified
(14.0170°N, 0.0000°E)
Time: 16:33:08
(UTC+00:00)

ISS - Visible Passes

Search period start: 19 April 2019 00:00
Search period end: 29 April 2019 00:00
Orbit: 408 x 410 km, 51.6° (Epoch: 20 April)

Date Brightness Start Highest point End Pass type
(mag) Time Alt. Az. Time Alt. Az. Time Alt. Az.
20 Apr -0.9 05:15:18 10° SSE 05:17:08 14° SE 05:18:59 10° E visible
22 Apr -3.3 05:08:43 10° SSW 05:11:57 59° SE 05:15:12 10° NE visible
23 Apr -1.6 04:19:44 16° SSE 04:21:14 22° SE 04:23:52 10° ENE visible
24 Apr -2.7 05:04:29 14° WSW 05:06:49 29° NW 05:09:43 10° NNE visible
25 Apr -3.7 04:16:18 69° N 04:16:18 69° N 04:19:16 10° NE visible
26 Apr -0.3 03:27:59 12° ENE 03:27:59 12° ENE 03:28:16 10° ENE visible
27 Apr -1.4 04:12:19 14° NNW 04:12:19 14° NNW 04:13:15 10° N visible
